RH
25 32 38 37 36 32 24 17 18 21 22 23 29 32 53 42 26 20 16 18 20 18 16 16 17 20 19 25 27 22 17 18
26 32 42 52 41 46 41 35 31 30 26 22 40 34 21 26 29 19 17 18 20 18 18 17 19 25 35 48 55 41 27 51
20 20 24 19 22 32 41 51 43 36 28 24 45 37 32 63 28 19 21 22 23 26 28 35 50 57 63 68 70 60 48 53
14 18 17 17 19 23 28 44 63 58 51 27 21 26 60 50 25 22 26 46 52 55 68 78 78 70 71 66 71 66 63 56
22 22 19 26 23 18 21 37 36 50 58 44 22 24 52 24 20 23 34 42 54 66 76 76 75 78 76 68 93 98 78 75
22 21 18 19 25 26 33 27 46 52 46 61 54 26 34 48 43 35 42 52 65 81 83 83 82 84 83 80 68 100 100 91
23 20 18 24 32 37 58 48 38 46 49 78 83 43 67 42 49 51 57 71 89 89 94 94 92 89 87 88 95 93 92 90
62 43 40 38 34 63 66 52 43 67 71 43 86 92 95 96 93 78 74 80 97 99 100 100 100 96 98 100 99 93 100 72
63 68 76 72 71 78 61 55 56 58 61 79 72 62 86 92 90 97 100 96 100 100 100 98 99 100 96 100 100 100 88 54
47 52 51 48 42 48 84 67 75 45 32 26 23 48 84 98 97 98 96 94 100 98 96 100 100 100 100 99 98 85 51 68
56 22 23 34 55 75 97 80 33 22 21 24 57 95 97 94 92 100 99 99 100 100 96 100 100 100 88 82 63 59 69 67
63 28 20 20 19 19 39 54 25 22 25 56 93 93 93 90 93 89 96 100 100 99 94 98 90 55 58 72 88 76 78 76
82 55 40 25 24 21 20 20 21 29 87 95 90 85 77 73 76 95 99 100 100 87 58 66 46 52 85 93 72 74 84 82
70 70 48 37 29 27 26 25 31 53 75 94 70 52 42 59 82 66 69 58 65 44 47 41 43 81 94 78 73 90 78 98
22 28 31 30 25 27 28 24 24 48 59 43 22 24 24 33 43 37 31 37 41 43 44 48 87 92 88 92 73 93 98 92
26 28 29 28 25 22 24 28 31 22 14 7 5 6 14 14 16 25 35 39 42 45 53 86 84 99 97 93 100 98 59 35
30 26 21 19 21 24 25 23 14 8 6 6 7 8 8 10 15 24 37 44 50 59 87 84 78 71 100 100 94 65 33 12
30 29 29 29 26 25 18 10 7 8 9 10 12 12 11 12 18 32 46 54 64 78 82 97 85 85 82 79 63 40 21 10
32 29 28 28 23 14 8 10 11 12 15 20 21 19 15 16 27 46 54 60 75 96 86 92 92 91 73 60 47 33 16 10
Wind_Speed
13 14 12 12 12 10 9 10 10 10 10 11 12 12 15 15 13 12 11 12 14 16 21 24 27 29 33 38 42 44 44 44
11 12 12 11 11 12 12 12 11 10 10 11 13 12 13 13 10 10 13 16 18 21 25 28 30 34 38 42 46 46 45 41
10 11 12 11 10 11 12 14 12 10 10 14 14 14 13 12 14 15 17 21 23 27 30 31 34 37 41 43 45 46 45 46
12 12 10 8 6 5 7 9 10 10 10 11 15 15 15 14 16 18 21 25 29 31 32 35 38 42 42 46 49 49 48 52
10 11 12 10 8 6 8 11 14 14 16 16 17 16 16 18 19 23 26 30 31 33 36 37 41 44 47 49 49 50 50 56
14 14 14 13 15 13 11 11 16 17 17 18 19 20 21 23 22 26 29 32 35 38 39 41 44 47 52 48 51 56 59 63
20 21 21 19 19 17 17 16 17 17 16 18 20 24 24 24 25 27 30 32 35 38 39 42 49 52 53 52 56 55 60 65
22 25 25 25 23 21 21 20 18 18 17 22 25 29 24 25 25 30 31 35 34 37 38 46 50 52 56 58 63 62 65 66
17 24 29 30 29 28 25 21 19 19 20 22 22 24 28 28 29 30 33 35 36 36 44 52 56 57 52 56 66 65 67 65
17 24 27 26 27 28 25 22 18 20 20 22 25 28 30 29 30 33 36 37 38 44 48 52 56 44 63 66 66 67 66 64
16 16 18 17 16 18 20 19 21 22 24 27 27 30 30 30 33 34 37 38 41 47 50 56 59 62 66 68 67 68 66 65
20 18 17 17 18 19 21 21 23 25 29 31 30 31 33 34 36 40 38 38 45 53 56 58 63 65 64 64 64 64 68 69
22 20 20 23 21 24 25 26 27 29 30 32 34 34 37 40 42 40 42 43 49 57 57 61 63 64 59 61 65 67 68 71
26 30 27 25 24 26 26 28 30 32 35 36 36 38 40 41 42 44 46 50 53 58 58 59 61 60 61 61 63 66 68 70
23 23 23 25 26 27 28 31 34 36 37 37 37 39 39 40 41 41 47 51 54 55 58 60 56 59 60 61 63 68 75 80
22 23 25 26 28 30 31 33 35 36 36 37 37 38 39 40 42 46 49 53 56 58 58 55 56 53 61 65 68 72 75 79
25 26 27 28 29 30 32 34 33 33 34 36 39 42 44 46 48 50 53 55 57 57 54 56 53 61 66 66 72 77 79 79
26 28 29 30 30 31 31 31 32 34 36 39 42 45 47 50 51 53 55 55 54 54 51 49 58 59 65 70 75 77 77 77
28 29 30 30 31 30 30 32 34 37 40 42 45 47 50 51 52 53 54 53 50 50 55 53 61 65 69 72 75 76 78 79
Wind_Direction
148 147 151 151 148 159 170 180 187 184 199 207 211 212 213 217 214 210 226 248 269 281 283 291 299 306 306 309 311 309 307 307
154 155 164 160 163 174 180 189 198 200 200 202 201 201 207 209 218 235 247 261 272 283 291 299 304 303 303 306 312 311 306 306
159 161 164 170 178 187 198 205 215 221 215 201 202 203 208 221 233 252 267 275 284 293 297 302 303 301 302 306 310 307 304 304
179 175 176 184 195 213 235 246 248 249 254 233 220 223 233 241 255 271 285 284 287 296 303 301 299 303 306 308 309 307 308 310
193 206 215 215 219 234 262 269 265 261 262 263 246 246 254 263 274 286 292 291 293 300 303 303 302 306 310 310 311 308 309 313
215 221 230 236 241 239 251 259 267 268 267 266 263 255 260 267 280 288 296 297 300 301 301 302 301 306 311 307 313 297 302 311
233 234 236 237 242 249 258 264 261 262 257 256 254 250 255 268 279 290 299 300 298 300 301 299 301 307 307 305 311 301 303 307
243 245 250 248 249 255 258 253 253 249 253 260 265 261 267 270 287 301 306 304 300 299 292 299 300 306 306 304 309 307 306 308
243 247 250 249 255 258 252 248 246 252 261 268 282 289 292 296 300 301 302 303 292 289 291 296 300 304 310 298 307 304 306 307
250 249 251 257 258 256 253 245 259 264 273 285 295 293 291 291 296 294 299 298 292 290 293 293 301 294 300 305 305 304 306 310
266 251 242 248 247 251 255 252 263 272 285 291 293 293 296 298 299 298 300 297 294 293 292 297 300 300 302 304 305 308 308 307
255 250 246 246 250 253 254 264 270 283 291 295 297 295 297 298 297 296 296 296 295 295 298 297 300 302 304 307 307 305 306 306
248 253 255 252 257 262 264 270 277 284 287 294 296 296 294 298 294 294 293 286 286 290 296 297 302 303 305 306 309 307 307 303
256 258 261 254 259 267 271 275 277 286 288 287 290 295 296 294 289 286 285 290 291 297 299 302 304 303 303 304 309 307 305 300
253 254 257 263 269 277 279 282 285 286 284 287 291 291 292 292 290 291 292 294 296 298 300 304 304 303 303 305 301 302 304 303
259 258 256 257 264 269 276 280 280 281 285 288 293 301 305 303 299 295 295 298 301 303 305 303 302 297 297 295 295 306 304 303
262 263 264 267 271 278 281 282 284 290 295 303 308 308 305 301 299 299 300 301 303 305 301 299 299 302 299 297 302 304 303 305
264 267 273 277 279 280 282 288 296 301 306 307 305 303 302 301 300 300 301 303 303 301 299 293 297 297 298 300 301 302 304 306
265 270 276 280 283 286 294 298 302 305 304 302 303 303 301 300 300 301 302 302 300 290 298 295 300 302 302 302 302 304 305 306